Location: Basse Occidentale du Courleau
(48.3833°N, 4.8333°W)
Time: 18:09:46
(UTC+00:00)

Cosmos 1825 - Pass Details

Date: 05 July 2020
Orbit: 503 x 508 km, 82.5° (Epoch: 06 August)

Event Time Altitude Azimuth Distance (km) Brightness Sun altitude
Exits shadow 23:32:47 43° 197° (SSW) 730 2.5 -18.0°
Maximum altitude 23:33:58 82° 280° (W) 521 2.1 -18.1°
Drops below altitude 10° 23:37:47 10° 8° (N) 1,738 6.0 -18.2°
Sets 23:39:55 0° 9° (N) 2,630 7.1 -18.3°
